Simultaneous Nadir Overpasses (SNOs) Predictions

Prediction of SNOs between AQUA and METOP-B Satellite Orbit:

Table of predicted SNOs for the next 14.0 days since TLE Epoch: 5/6/2023
Index Date (AQUA) Time (AQUA) Lat,Lon (AQUA) SZA (AQUA ) Date (METOP-B) Time (METOP-B) Lat,Lon (METOP-B) SZA (METOP-B ) Distance(km) Time Diff (sec)
1 05/08/2023 12:18:44 -73.83, 172.35 123.36 05/08/2023 12:17:38 -73.75, 169.47 123.36 89.76 66
2 05/08/2023 13:08:21 74.42, -21.39 57.26 05/08/2023 13:08:04 74.44, -21.51 57.27 3.70 17
3 05/08/2023 13:57:47 -74.53, 146.01 122.65 05/08/2023 13:58:44 -74.52, 146.03 122.66 1.27 57
4 05/11/2023 06:11:41 -73.99, -96.21 123.92 05/11/2023 06:10:33 -73.92, -98.38 123.93 67.15 68
5 05/11/2023 07:01:15 74.43, 70.39 56.54 05/11/2023 07:01:02 74.45, 70.28 56.56 3.62 13
6 05/11/2023 07:50:41 -74.53,-122.21 123.37 05/11/2023 07:51:42 -74.53,-122.17 123.37 1.11 61
7 05/14/2023 00:04:37 -74.22, -4.93 124.37 05/14/2023 00:03:26 -74.12, -6.13 124.43 38.04 71
8 05/14/2023 00:54:07 74.46, 162.14 55.88 05/14/2023 00:53:59 74.45, 162.04 55.87 3.17 8
9 05/14/2023 01:43:33 -74.56, -30.45 124.03 05/14/2023 01:44:39 -74.54, -30.41 124.05 2.57 66
10 05/16/2023 17:57:32 -74.40, 86.44 124.82 05/16/2023 17:56:19 -74.36, 86.22 124.86 8.13 73
11 05/16/2023 18:46:59 74.49,-106.14 55.27 05/16/2023 18:46:56 74.49,-106.11 55.26 1.14 3
12 05/16/2023 19:36:24 -74.54, 61.40 124.69 05/16/2023 19:37:37 -74.53, 61.33 124.71 2.40 73
13 05/19/2023 11:50:23 -74.45, 178.14 125.38 05/19/2023 11:49:15 -74.44, 178.18 125.39 2.03 68
14 05/19/2023 12:39:49 74.49, -14.31 54.66 05/19/2023 12:39:53 74.51, -14.28 54.68 2.31 4



Historial Predications of SNOs between AQUA and METOP-B
